[[{"header":{"parameterUnit":"m.s-1","parameterCategory":1,"la1":30.2991,"la2":30.254,"lo1":-89.0895,"lo2":-89.0444,"dy":0.0017,"dx":0.0017,"nx":28,"ny":28,"refTime":"2024-06-01T09:00:00:Z","depth":0,"parameterNumber":2,"parameterNumberName":"U-component_of_WINDS"},"data":[0,0,0,0,0,0,0,0,0,0,0,0,0,0,0,0,0,0,0,0,0,0,0,0,0,0,0,0,0,0,0,0,0,0,0,0,0,0,0,0,0,0,0,0,0,0,0,0,0,0,0,0,0,0,0,0,0,0,-4.0331,-4.0333,0,-4.0478,-4.048,-4.0481,-4.0507,-4.0506,-4.0505,-4.0504,-4.0656,-4.0661,-4.0666,0,0,0,0,0,0,0,0,0,0,0,0,0,-4.0077,-4.0082,-4.0331,-4.0333,-4.0335,-4.0478,-4.048,-4.0482,-4.0508,-4.0506,-4.0505,-4.0503,-4.0654,-4.0661,-4.0667,0,0,0,0,0,0,0,0,0,0,0,0,0,-4.0202,-4.0083,-4.0331,-4.0365,-4.0369,-4.0477,-4.048,-4.0482,-4.0508,-4.0506,-4.0504,-4.0502,-4.0652,-4.066,-4.0668,-4.0752,0,0,-4.0691,-4.0695,0,0,0,0,0,0,0,0,-4.0195,-4.0212,-4.0358,-4.0363,-4.0368,-4.0472,-4.0446,-4.0573,-4.0508,-4.0455,-4.0504,-4.0502,-4.0597,-4.0609,-4.0641,-4.076,-4.0766,-4.0692,-4.0697,-4.07,-4.0702,0,0,0,0,0,0,0,-4.0186,-4.0205,-4.0389,-4.036,-4.0366,-4.0374,-4.039,-4.047,-4.0535,-4.046,-4.0462,-4.0479,-4.0599,-4.0633,-4.0644,-4.0768,-4.0692,-4.0699,-4.0704,-4.0707,-4.0966,-4.0968,0,0,0,0,0,0,-4.0171,-4.0198,-4.0385,-4.0394,-4.0275,-4.038,-4.0398,-4.0441,-4.0534,-4.0546,-4.048,-4.048,-4.0621,-4.0635,-4.065,-4.0755,-4.07,-4.0707,-4.0712,-4.0964,-4.0966,-4.0969,0,0,0,0,0,0,-4.0166,-4.0188,-4.0379,-4.0297,-4.0321,-4.0386,-4.0435,-4.0445,-4.0478,-4.0549,-4.0561,-4.0503,-4.062,-4.0639,-4.0727,-4.0761,-4.0711,-4.0718,-4.0961,-4.0964,-4.0967,-4.0966,0,0,0,0,0,0,-4.0158,-4.0185,-4.0217,-4.0297,-4.0326,-4.0452,-4.0437,-4.0449,-4.0492,-4.0492,-4.0574,-4.0585,-4.062,-4.0715,-4.0735,-4.0771,-4.0724,-4.0958,-4.0962,-4.0966,-4.0964,-4.0969,-4.0974,0,0,0,0,0,-4.0149,-4.0212,-4.0219,-4.0241,-4.0367,-4.0454,-4.0471,-4.0508,-4.0494,-4.0527,-4.0573,-4.0583,-4.0754,-4.0724,-4.0746,-4.0785,-4.0956,-4.0961,-4.0966,-4.0961,-4.0968,-4.0974,0,0,0,0,0,0,-4.0135,-4.0223,-4.0231,-4.0321,-4.038,-4.0458,-4.0501,-4.0514,-4.0578,-4.0576,-4.0621,-4.0639,-4.0725,-4.0764,-4.0729,-4.0873,-4.0854,-4.0864,-4.0843,-4.085,-4.0855,-4.0844,-4.0731,0,0,0,0,0,-4.0142,-4.0205,-4.0279,-4.0351,-4.038,-4.0435,-4.0475,-4.0499,-4.0562,-4.0587,-4.0639,-4.07,-4.0768,-4.0812,-4.0878,-4.097,-4.0989,-4.1008,-4.1014,-4.1017,-4.1025,-4.1077,-4.1087,-4.0985,-4.0985,-4.0985,0,0,-4.0158,-4.0214,-4.025,-4.0349,-4.0397,-4.0462,-4.0456,-4.0525,-4.0573,-4.0598,-4.0683,-4.0724,-4.0796,-4.0886,-4.0929,-4.0921,-4.1057,-4.1024,-4.1026,-4.1032,-4.1083,-4.1093,-4.1101,-4.0988,-4.0988,-4.0987,0,0,-4.0219,-4.0268,-4.0333,-4.0382,-4.0454,-4.0491,-4.0507,-4.0584,-4.0612,-4.0699,-4.0718,-4.0778,-4.0894,-4.0944,-4.0985,-4.1067,-4.1078,-4.1088,-4.1114,-4.1165,-4.1173,-4.118,-4.1209,-4.1219,-4.1095,-4.1095,-4.1095,0,-4.0229,-4.0326,-4.0365,-4.0433,-4.0476,-4.0501,-4.0569,-4.0614,-4.0705,-4.0735,-4.0726,-4.0873,-4.0923,-4.1025,-4.1045,-4.1078,-4.1098,-4.1078,-4.1168,-4.1176,-4.1183,-4.1211,-4.1222,-4.1096,-4.1096,-4.1096,-4.1096,0,-4.0335,-4.0403,-4.0447,-4.0533,-4.0582,-4.065,-4.07,-4.0745,-4.0765,-4.0804,-4.0893,-4.0954,-4.1033,-4.106,-4.1081,-4.1166,-4.116,-4.1159,-4.1141,-4.1193,-4.122,-4.1231,-4.1097,-4.1096,-4.1096,-4.1096,0,0,-4.039,-4.0498,-4.0513,-4.0553,-4.0636,-4.0689,-4.0759,-4.0836,-4.0873,-4.0937,-4.0996,-4.1094,-4.1094,-4.1141,-4.1168,-4.1212,-4.1274,-4.1207,-4.1209,-4.1216,-4.1372,-4.137,-4.1382,-4.1282,-4.1285,-4.1287,-4.1365,0,-4.046,-4.0583,-4.062,-4.0723,-4.0786,-4.0812,-4.0872,-4.0931,-4.0969,-4.1029,-4.1072,-4.1141,-4.1136,-4.1164,-4.1209,-4.1256,-4.1305,-4.1252,-4.1338,-4.1341,-4.1318,-4.1397,-4.1396,-4.1467,-4.1376,-4.1378,-4.138,0,-4.0558,-4.0621,-4.073,-4.0806,-4.0834,-4.0887,-4.0961,-4.1018,-4.1086,-4.1111,-4.1163,-4.1187,-4.1262,-4.1241,-4.1345,-4.1308,-4.1346,-4.1375,-4.1379,-4.1387,-4.1362,-4.1406,-4.1491,-4.1501,-4.1397,-4.1395,-4.1394,0,-4.0586,-4.0699,-4.0779,-4.0812,-4.0902,-4.0939,-4.0979,-4.1045,-4.1089,-4.1154,-4.1184,-4.1258,-4.1298,-4.1355,-4.1399,-4.138,-4.1499,-4.1482,-4.1522,-4.1521,-4.1544,-4.1542,-4.1635,-4.1571,-4.1571,-4.1571,-4.1571,0,-4.066,-4.0725,-4.0792,-4.0841,-4.0916,-4.096,-4.1033,-4.1074,-4.1132,-4.1191,-4.1219,-4.1273,-4.1328,-4.1391,-4.1426,-4.1507,-4.1525,-4.1548,-4.1556,-4.1544,-4.1541,-4.1569,-4.1565,-4.1574,-4.1573,-4.1573,-4.1572,0,-4.0702,-4.075,-4.0838,-4.0917,-4.0938,-4.099,-4.1058,-4.1107,-4.1147,-4.122,-4.124,-4.1304,-4.1379,-4.1428,-4.1525,-4.1548,-4.1636,-4.1644,-4.1612,-4.1616,-4.1653,-4.1648,-4.1766,-4.1783,-4.1709,-4.1709,-4.171,0,-4.0745,-4.0796,-4.088,-4.092,-4.096,-4.1025,-4.107,-4.1116,-4.1162,-4.1244,-4.1283,-4.136,-4.1423,-4.1542,-4.1598,-4.1672,-4.1681,-4.1717,-4.1692,-4.1679,-4.1681,-4.1676,-4.1682,-4.172,-4.1721,-4.1721,-4.1722,0,-4.0817,-4.0838,-4.0901,-4.0973,-4.1025,-4.1085,-4.1144,-4.1176,-4.1233,-4.1284,-4.136,-4.141,-4.1508,-4.1584,-4.1663,-4.1706,-4.1724,-4.173,-4.1743,-4.173,-4.171,-4.1721,-4.1622,-4.1726,-4.1726,-4.1725,-4.1725,-4.1725,-4.0861,-4.0907,-4.0973,-4.1043,-4.1092,-4.1147,-4.1197,-4.1243,-4.1308,-4.139,-4.1414,-4.1494,-4.1562,-4.167,-4.1714,-4.1778,-4.1775,-4.1794,-4.1798,-4.1802,-4.1802,-4.1701,-4.1793,-4.1793,-4.1793,-4.1793,-4.1793,0,-4.0933,-4.0976,-4.104,-4.1122,-4.1177,-4.1189,-4.1256,-4.1301,-4.1371,-4.1432,-4.1494,-4.1582,-4.1657,-4.1718,-4.1795,-4.1835,-4.1845,-4.1853,-4.185,-4.186,-4.1801,-4.1781,-4.1844,-4.1844,-4.1844,-4.1844,-4.1844,-4.1844,-4.0976,-4.1055,-4.1084,-4.1189,-4.1233,-4.131,-4.1347,-4.1399,-4.1448,-4.1545,-4.1606,-4.1645,-4.1708,-4.179,-4.1859,-4.1875,-4.1902,-4.1908,-4.1926,-4.187,-4.1864,-4.1858,-4.184,-4.1914,-4.1914,-4.198,-4.1981,-4.1981]},{"header":{"parameterUnit":"m.s-1","parameterCategory":1,"la1":30.2991,"la2":30.254,"lo1":-89.0895,"lo2":-89.0444,"dy":0.0017,"dx":0.0017,"nx":28,"ny":28,"refTime":"2024-06-01T09:00:00:Z","depth":0,"parameterNumber":3,"parameterNumberName":"V-component_of_WINDS"},"data":[0,0,0,0,0,0,0,0,0,0,0,0,0,0,0,0,0,0,0,0,0,0,0,0,0,0,0,0,0,0,0,0,0,0,0,0,0,0,0,0,0,0,0,0,0,0,0,0,0,0,0,0,0,0,0,0,0,0,6.718,6.7183,0,6.7486,6.749,6.7493,6.7555,6.7552,6.755,6.7548,6.7863,6.7873,6.7884,0,0,0,0,0,0,0,0,0,0,0,0,0,6.6649,6.6659,6.718,6.7183,6.7187,6.7486,6.749,6.7494,6.7555,6.7552,6.7549,6.7547,6.786,6.7872,6.7885,0,0,0,0,0,0,0,0,0,0,0,0,0,6.691,6.6662,6.7179,6.7254,6.7263,6.7485,6.749,6.7495,6.7556,6.7552,6.7549,6.7545,6.7856,6.7871,6.7887,6.8056,0,0,6.7935,6.7942,0,0,0,0,0,0,0,0,6.6895,6.6929,6.7239,6.7249,6.726,6.7479,6.7419,6.7683,6.7557,6.7445,6.7548,6.7544,6.7738,6.7763,6.7829,6.807,6.8084,6.7937,6.7946,6.7953,6.7958,0,0,0,0,0,0,0,6.6877,6.6917,6.7301,6.7243,6.7256,6.7273,6.7306,6.7469,6.7608,6.7454,6.7459,6.7495,6.7743,6.7813,6.7837,6.8089,6.7936,6.795,6.796,6.7966,6.8486,6.849,0,0,0,0,0,0,6.6846,6.6901,6.7291,6.731,6.7065,6.7285,6.7322,6.7412,6.7606,6.7632,6.7498,6.7497,6.7788,6.7818,6.7848,6.806,6.7953,6.7968,6.7977,6.8482,6.8487,6.8492,0,0,0,0,0,0,6.6834,6.688,6.7279,6.7107,6.7159,6.7298,6.7399,6.742,6.749,6.7639,6.7664,6.7543,6.7786,6.7826,6.8004,6.8071,6.7975,6.799,6.8477,6.8483,6.8489,6.8483,0,0,0,0,0,0,6.6818,6.6875,6.694,6.7108,6.7168,6.7429,6.7403,6.7429,6.7517,6.7519,6.7688,6.7713,6.7787,6.798,6.802,6.8091,6.8002,6.8471,6.848,6.8487,6.8478,6.8488,6.8498,0,0,0,0,0,6.6799,6.6926,6.6943,6.699,6.7252,6.7433,6.7467,6.7548,6.7522,6.7589,6.7685,6.7708,6.8057,6.7997,6.8043,6.812,6.8467,6.8477,6.8487,6.8473,6.8486,6.8497,0,0,0,0,0,0,6.6763,6.695,6.697,6.7156,6.7278,6.7442,6.7529,6.7559,6.7692,6.7688,6.7783,6.7821,6.7994,6.8075,6.8005,6.8295,6.8261,6.828,6.8236,6.8249,6.8259,6.8236,6.8015,0,0,0,0,0,6.6777,6.6907,6.7063,6.7212,6.7272,6.739,6.7471,6.7524,6.7654,6.7706,6.7815,6.7941,6.808,6.8169,6.8305,6.849,6.8529,6.8566,6.8576,6.8583,6.8598,6.8704,6.8723,6.8523,6.8523,6.8523,0,0,6.6806,6.6924,6.7001,6.7207,6.7308,6.7441,6.7433,6.7574,6.7674,6.7728,6.7903,6.7987,6.8135,6.8317,6.8403,6.839,6.8662,6.8595,6.86,6.8612,6.8716,6.8734,6.8751,6.853,6.8528,6.8527,0,0,6.6928,6.703,6.7165,6.7266,6.7419,6.7497,6.7529,6.769,6.7748,6.7925,6.7968,6.8089,6.8325,6.8429,6.8512,6.8674,6.8701,6.8716,6.8767,6.8869,6.8884,6.8899,6.8957,6.8977,6.8731,6.8731,6.8731,0,6.6945,6.7147,6.7231,6.7371,6.7461,6.7515,6.7653,6.7747,6.7936,6.7998,6.798,6.8279,6.8382,6.859,6.8629,6.8695,6.8736,6.8697,6.8875,6.889,6.8905,6.8962,6.8984,6.8731,6.8731,6.8731,6.8731,0,6.7162,6.7301,6.7392,6.7573,6.7673,6.7811,6.7916,6.8008,6.8052,6.8132,6.8312,6.8438,6.86,6.8653,6.8697,6.8869,6.8856,6.8856,6.8824,6.8924,6.8979,6.9001,6.8733,6.8732,6.8732,6.8732,0,0,6.7269,6.7494,6.7527,6.761,6.7782,6.7892,6.8033,6.8191,6.8268,6.8397,6.8519,6.8718,6.8719,6.8814,6.887,6.8959,6.908,6.8949,6.8954,6.8969,6.9278,6.9277,6.9301,6.9099,6.9103,6.9107,6.9266,0,6.7412,6.7664,6.7744,6.7955,6.8086,6.814,6.8263,6.8382,6.8461,6.8584,6.8671,6.8811,6.8802,6.8859,6.895,6.9046,6.9144,6.9036,6.9214,6.9219,6.9175,6.933,6.9329,6.9473,6.9288,6.9291,6.9294,0,6.7612,6.7744,6.7968,6.8124,6.8182,6.8291,6.8443,6.8559,6.8697,6.8748,6.8854,6.8903,6.9054,6.9013,6.9223,6.9147,6.9225,6.9284,6.9291,6.9311,6.9262,6.9354,6.9521,6.9542,6.9329,6.9326,6.9324,0,6.7669,6.7902,6.8067,6.8136,6.8322,6.8398,6.8479,6.8613,6.8703,6.8837,6.8896,6.9046,6.9127,6.9242,6.9331,6.9293,6.9533,6.95,6.9581,6.9579,6.9629,6.9625,6.9811,6.9678,6.9678,6.9678,6.9677,0,6.782,6.7955,6.8094,6.8195,6.8349,6.8439,6.8589,6.8673,6.8792,6.8911,6.8967,6.9078,6.9189,6.9315,6.9386,6.9549,6.9585,6.9632,6.9649,6.9627,6.9621,6.968,6.9672,6.9684,6.9682,6.9681,6.968,0,6.7909,6.8008,6.819,6.8352,6.8396,6.8502,6.8641,6.8742,6.8822,6.8973,6.9014,6.9141,6.9293,6.9392,6.9586,6.9634,6.9812,6.9827,6.9765,6.9774,6.985,6.9841,7.008,7.0116,6.9958,6.996,6.9961,0,6.7999,6.8104,6.8277,6.8361,6.8442,6.8576,6.8668,6.8762,6.8856,6.9021,6.9102,6.9257,6.9386,6.9626,6.9737,6.9885,6.9904,6.9978,6.9927,6.9902,6.9907,6.9899,6.9911,6.9986,6.9987,6.9988,6.9989,0,6.8149,6.8193,6.8323,6.8472,6.858,6.8701,6.8823,6.8888,6.9004,6.9107,6.9262,6.9362,6.9559,6.9713,6.9872,6.9957,6.9993,7.0004,7.0031,7.001,6.997,6.9993,6.9788,6.9998,6.9997,6.9996,6.9996,6.9996,6.8243,6.8339,6.8475,6.8619,6.872,6.8833,6.8935,6.9029,6.916,6.9327,6.9375,6.9537,6.9673,6.989,6.9978,7.0107,7.01,7.0138,7.0148,7.0157,7.0157,6.9949,7.0137,7.0137,7.0136,7.0136,7.0136,0,6.8396,6.8486,6.8618,6.8786,6.8899,6.8922,6.9058,6.9151,6.9293,6.9416,6.9542,6.9721,6.987,6.9993,7.0147,7.0227,7.0247,7.0265,7.026,7.0279,7.0155,7.0117,7.0246,7.0245,7.0245,7.0245,7.0245,7.0245,6.8489,6.8653,6.8713,6.8928,6.9018,6.9176,6.9252,6.9357,6.9456,6.9652,6.9776,6.9855,6.9979,7.0143,7.0282,7.0314,7.0369,7.0383,7.0418,7.03,7.0288,7.0276,7.0241,7.0393,7.0394,7.0532,7.0534,7.0535]}]]